[[{"header":{"parameterUnit":"m.s-1","parameterCategory":1,"la1":30.2991,"la2":30.254,"lo1":-89.0895,"lo2":-89.0444,"dy":0.0017,"dx":0.0017,"nx":28,"ny":28,"refTime":"2023-04-08T21:00:00:Z","depth":0,"parameterNumber":2,"parameterNumberName":"U-component_of_WINDS"},"data":[0,0,0,0,0,0,0,0,0,0,0,0,0,0,0,0,0,0,0,0,0,0,0,0,0,0,0,0,0,0,0,0,0,0,0,0,0,0,0,0,0,0,0,0,0,0,0,0,0,0,0,0,0,0,0,0,0,0,-3.703,-3.7031,0,-3.7129,-3.713,-3.7131,-3.712,-3.7119,-3.7117,-3.7116,-3.7218,-3.7223,-3.7227,0,0,0,0,0,0,0,0,0,0,0,0,0,-3.6834,-3.6838,-3.703,-3.7031,-3.7032,-3.7129,-3.713,-3.7131,-3.7121,-3.7119,-3.7117,-3.7115,-3.7217,-3.7222,-3.7227,0,0,0,0,0,0,0,0,0,0,0,0,0,-3.6925,-3.6839,-3.703,-3.7039,-3.704,-3.7128,-3.713,-3.7132,-3.7121,-3.7119,-3.7116,-3.7114,-3.7215,-3.7222,-3.7228,-3.7314,0,0,-3.7247,-3.725,0,0,0,0,0,0,0,0,-3.692,-3.6932,-3.7036,-3.7038,-3.704,-3.711,-3.7099,-3.7193,-3.7122,-3.709,-3.7116,-3.7113,-3.7184,-3.7193,-3.7217,-3.7318,-3.7323,-3.7248,-3.7251,-3.7254,-3.7256,0,0,0,0,0,0,0,-3.6913,-3.6928,-3.7069,-3.7038,-3.704,-3.7038,-3.7049,-3.7116,-3.7149,-3.7093,-3.7092,-3.7104,-3.7185,-3.7211,-3.7219,-3.7324,-3.7247,-3.7253,-3.7257,-3.7259,-3.7503,-3.7505,0,0,0,0,0,0,-3.6905,-3.6922,-3.7066,-3.7072,-3.6973,-3.7044,-3.7055,-3.709,-3.7149,-3.7155,-3.7106,-3.7103,-3.7201,-3.7212,-3.7223,-3.7328,-3.7254,-3.726,-3.7264,-3.75,-3.7503,-3.7506,0,0,0,0,0,0,-3.69,-3.6917,-3.7062,-3.6997,-3.7015,-3.705,-3.7089,-3.7093,-3.7119,-3.7158,-3.7164,-3.7126,-3.72,-3.7214,-3.7291,-3.7331,-3.7263,-3.7268,-3.7497,-3.7501,-3.7505,-3.7539,0,0,0,0,0,0,-3.6895,-3.6916,-3.6949,-3.6998,-3.7019,-3.7128,-3.7091,-3.7097,-3.7129,-3.7127,-3.7179,-3.7185,-3.7199,-3.7282,-3.7298,-3.7339,-3.7273,-3.7494,-3.7499,-3.7504,-3.7534,-3.7543,-3.7551,0,0,0,0,0,-3.6888,-3.6954,-3.695,-3.6968,-3.706,-3.7131,-3.7143,-3.7157,-3.7133,-3.7166,-3.7192,-3.7184,-3.7324,-3.729,-3.7307,-3.7351,-3.7491,-3.7497,-3.7503,-3.753,-3.7542,-3.7551,0,0,0,0,0,0,-3.6909,-3.6961,-3.6957,-3.7041,-3.7082,-3.7129,-3.7171,-3.7168,-3.7216,-3.7212,-3.7227,-3.7239,-3.7318,-3.7342,-3.7303,-3.7438,-3.7405,-3.7414,-3.7419,-3.743,-3.7439,-3.7431,-3.7279,0,0,0,0,0,-3.6923,-3.6976,-3.7018,-3.7089,-3.7109,-3.7137,-3.7168,-3.7175,-3.7218,-3.7235,-3.7266,-3.7309,-3.7362,-3.7398,-3.7449,-3.7537,-3.7549,-3.7576,-3.7585,-3.7592,-3.76,-3.765,-3.7663,-3.7526,-3.7526,-3.7526,0,0,-3.6954,-3.6989,-3.7021,-3.7094,-3.7126,-3.7181,-3.7151,-3.721,-3.7251,-3.7244,-3.7319,-3.7344,-3.7392,-3.7476,-3.7514,-3.7498,-3.764,-3.7599,-3.7604,-3.7609,-3.7657,-3.767,-3.7682,-3.753,-3.753,-3.7529,0,0,-3.7037,-3.7069,-3.7131,-3.7164,-3.7213,-3.7231,-3.7246,-3.7294,-3.731,-3.7385,-3.7381,-3.7431,-3.7523,-3.7558,-3.7587,-3.7685,-3.768,-3.7701,-3.7746,-3.7794,-3.7805,-3.7815,-3.7851,-3.7863,-3.7709,-3.771,-3.771,0,-3.7069,-3.7151,-3.7164,-3.7223,-3.7256,-3.7252,-3.7316,-3.7347,-3.7411,-3.7434,-3.7415,-3.7531,-3.7563,-3.7655,-3.7679,-3.7703,-3.7722,-3.7696,-3.7802,-3.7812,-3.7821,-3.7856,-3.7869,-3.7712,-3.7712,-3.7711,-3.7711,0,-3.7188,-3.7245,-3.729,-3.7351,-3.7388,-3.745,-3.7473,-3.7509,-3.7513,-3.7533,-3.7611,-3.765,-3.7709,-3.7732,-3.7736,-3.7825,-3.7814,-3.7799,-3.7766,-3.7837,-3.7869,-3.7882,-3.7715,-3.7714,-3.7714,-3.7713,0,0,-3.7288,-3.7356,-3.7372,-3.74,-3.7454,-3.7498,-3.756,-3.7618,-3.765,-3.7694,-3.7747,-3.7825,-3.7812,-3.7845,-3.7854,-3.7896,-3.7972,-3.7876,-3.7877,-3.7893,-3.8074,-3.8085,-3.81,-3.7969,-3.7971,-3.7973,-3.807,0,-3.7378,-3.7486,-3.75,-3.7596,-3.765,-3.7647,-3.7701,-3.774,-3.7761,-3.7809,-3.7832,-3.7888,-3.7865,-3.7886,-3.7928,-3.7954,-3.8009,-3.7947,-3.8019,-3.8022,-3.8008,-3.8117,-3.8129,-3.8219,-3.8083,-3.8085,-3.8086,0,-3.7497,-3.7544,-3.7646,-3.7693,-3.7716,-3.7764,-3.7819,-3.7865,-3.791,-3.7922,-3.796,-3.7964,-3.8029,-3.7992,-3.8082,-3.804,-3.8071,-3.8088,-3.8092,-3.81,-3.8059,-3.8129,-3.8247,-3.8261,-3.8106,-3.8105,-3.8103,0,-3.756,-3.7649,-3.7722,-3.7746,-3.7803,-3.7837,-3.7863,-3.7905,-3.7939,-3.7987,-3.801,-3.8065,-3.8096,-3.8139,-3.8157,-3.8129,-3.8247,-3.8212,-3.826,-3.8259,-3.8285,-3.8283,-3.8411,-3.8303,-3.8303,-3.8303,-3.8303,0,-3.7659,-3.7722,-3.7752,-3.7797,-3.7867,-3.7882,-3.7952,-3.7976,-3.8014,-3.8065,-3.8065,-3.8112,-3.8134,-3.8185,-3.8199,-3.8273,-3.8286,-3.8299,-3.8302,-3.8299,-3.8298,-3.832,-3.8314,-3.8306,-3.8306,-3.8305,-3.8304,0,-3.7743,-3.7765,-3.7844,-3.7891,-3.7905,-3.7955,-3.7996,-3.804,-3.806,-3.8124,-3.8139,-3.8171,-3.8231,-3.8254,-3.8327,-3.8337,-3.8422,-3.842,-3.8407,-3.8408,-3.8455,-3.845,-3.8602,-3.8623,-3.85,-3.8501,-3.8502,0,-3.7805,-3.7853,-3.7906,-3.7939,-3.7966,-3.8019,-3.8054,-3.8071,-3.8108,-3.8163,-3.8201,-3.826,-3.8309,-3.8405,-3.8436,-3.8492,-3.8492,-3.8541,-3.85,-3.8496,-3.8494,-3.8491,-3.8496,-3.8549,-3.855,-3.8551,-3.8552,0,-3.7913,-3.7922,-3.7972,-3.8026,-3.8068,-3.8112,-3.8154,-3.8182,-3.8205,-3.8247,-3.8308,-3.8345,-3.842,-3.848,-3.8538,-3.8565,-3.8563,-3.8564,-3.8579,-3.8576,-3.8567,-3.8574,-3.8428,-3.8561,-3.856,-3.8559,-3.8559,-3.8559,-3.7989,-3.8032,-3.8075,-3.8132,-3.8165,-3.8205,-3.8249,-3.8275,-3.8326,-3.8388,-3.8395,-3.8461,-3.8505,-3.8583,-3.8612,-3.8665,-3.8652,-3.8672,-3.8678,-3.8683,-3.8687,-3.8558,-3.8676,-3.8675,-3.8675,-3.8675,-3.8675,0,-3.8098,-3.8126,-3.8177,-3.8237,-3.8281,-3.8274,-3.8321,-3.8359,-3.8417,-3.8459,-3.8506,-3.8577,-3.8635,-3.867,-3.8729,-3.8764,-3.8765,-3.8779,-3.8777,-3.8784,-3.8694,-3.8677,-3.8778,-3.8778,-3.8778,-3.8778,-3.8778,-3.8777,-3.816,-3.8233,-3.8247,-3.8337,-3.8364,-3.8428,-3.8456,-3.8493,-3.8527,-3.8605,-3.8653,-3.8675,-3.8715,-3.8776,-3.883,-3.8839,-3.8861,-3.8876,-3.8884,-3.88,-3.879,-3.878,-3.8763,-3.8881,-3.8881,-3.8969,-3.897,-3.8971]},{"header":{"parameterUnit":"m.s-1","parameterCategory":1,"la1":30.2991,"la2":30.254,"lo1":-89.0895,"lo2":-89.0444,"dy":0.0017,"dx":0.0017,"nx":28,"ny":28,"refTime":"2023-04-08T21:00:00:Z","depth":0,"parameterNumber":3,"parameterNumberName":"V-component_of_WINDS"},"data":[0,0,0,0,0,0,0,0,0,0,0,0,0,0,0,0,0,0,0,0,0,0,0,0,0,0,0,0,0,0,0,0,0,0,0,0,0,0,0,0,0,0,0,0,0,0,0,0,0,0,0,0,0,0,0,0,0,0,-3.6985,-3.6987,0,-3.7116,-3.7117,-3.7119,-3.7134,-3.7133,-3.7131,-3.713,-3.7265,-3.727,-3.7275,0,0,0,0,0,0,0,0,0,0,0,0,0,-3.6748,-3.6753,-3.6985,-3.6987,-3.6988,-3.7116,-3.7117,-3.7119,-3.7134,-3.7132,-3.7131,-3.7129,-3.7264,-3.727,-3.7275,0,0,0,0,0,0,0,0,0,0,0,0,0,-3.6862,-3.6754,-3.6985,-3.7011,-3.7015,-3.7115,-3.7118,-3.712,-3.7134,-3.7132,-3.713,-3.7129,-3.7262,-3.7269,-3.7276,-3.736,0,0,-3.7298,-3.7301,0,0,0,0,0,0,0,0,-3.6856,-3.6871,-3.7006,-3.7009,-3.7014,-3.7107,-3.7084,-3.72,-3.7135,-3.7089,-3.713,-3.7128,-3.7214,-3.7225,-3.7254,-3.7366,-3.7372,-3.7299,-3.7303,-3.7306,-3.7308,0,0,0,0,0,0,0,-3.6848,-3.6866,-3.7037,-3.7007,-3.7012,-3.7016,-3.703,-3.7106,-3.7161,-3.7093,-3.7094,-3.7109,-3.7216,-3.7247,-3.7257,-3.7374,-3.7299,-3.7305,-3.731,-3.7312,-3.7562,-3.7564,0,0,0,0,0,0,-3.6835,-3.6859,-3.7033,-3.7041,-3.6928,-3.7022,-3.7038,-3.7079,-3.716,-3.7171,-3.7111,-3.711,-3.7236,-3.7249,-3.7262,-3.7367,-3.7306,-3.7313,-3.7317,-3.756,-3.7563,-3.7565,0,0,0,0,0,0,-3.683,-3.685,-3.7027,-3.695,-3.6973,-3.7028,-3.7074,-3.7082,-3.7113,-3.7174,-3.7184,-3.7133,-3.7235,-3.7252,-3.7336,-3.7372,-3.7316,-3.7323,-3.7557,-3.7561,-3.7564,-3.7575,0,0,0,0,0,0,-3.6823,-3.6849,-3.6881,-3.6951,-3.6977,-3.7099,-3.7076,-3.7086,-3.7126,-3.7125,-3.7197,-3.7207,-3.7235,-3.7325,-3.7343,-3.7381,-3.7329,-3.7554,-3.7559,-3.7563,-3.7572,-3.7579,-3.7585,0,0,0,0,0,-3.6815,-3.6879,-3.6883,-3.6904,-3.7019,-3.7101,-3.7116,-3.7146,-3.7129,-3.7162,-3.72,-3.7205,-3.7364,-3.7333,-3.7354,-3.7394,-3.7552,-3.7557,-3.7562,-3.7569,-3.7578,-3.7584,0,0,0,0,0,0,-3.6813,-3.6889,-3.6894,-3.6983,-3.7035,-3.7103,-3.7146,-3.7153,-3.7212,-3.7209,-3.7244,-3.726,-3.7342,-3.7376,-3.734,-3.748,-3.7457,-3.7466,-3.7455,-3.7463,-3.7469,-3.746,-3.7335,0,0,0,0,0,-3.6823,-3.6883,-3.6946,-3.7018,-3.7044,-3.709,-3.7127,-3.7146,-3.7201,-3.7224,-3.7269,-3.7323,-3.7385,-3.7426,-3.7486,-3.7576,-3.7593,-3.7614,-3.762,-3.7625,-3.7634,-3.7684,-3.7695,-3.7582,-3.7582,-3.7582,0,0,-3.6844,-3.6893,-3.6929,-3.7019,-3.7062,-3.7124,-3.7109,-3.7175,-3.7221,-3.7234,-3.7316,-3.735,-3.7413,-3.75,-3.7541,-3.7531,-3.7668,-3.7632,-3.7635,-3.7641,-3.769,-3.7701,-3.7711,-3.7585,-3.7585,-3.7584,0,0,-3.6915,-3.6958,-3.7023,-3.7066,-3.713,-3.716,-3.7176,-3.7243,-3.7266,-3.7348,-3.7359,-3.7414,-3.7521,-3.7565,-3.7602,-3.7688,-3.7694,-3.7706,-3.774,-3.7789,-3.7797,-3.7806,-3.7837,-3.7848,-3.7714,-3.7714,-3.7714,0,-3.6934,-3.7027,-3.7056,-3.7121,-3.7161,-3.7174,-3.7241,-3.7281,-3.7362,-3.7389,-3.7377,-3.751,-3.7554,-3.7652,-3.7672,-3.7701,-3.7721,-3.7699,-3.7794,-3.7802,-3.781,-3.7841,-3.7852,-3.7715,-3.7715,-3.7715,-3.7715,0,-3.7047,-3.7111,-3.7156,-3.7234,-3.7278,-3.7344,-3.7383,-3.7424,-3.7438,-3.7469,-3.7553,-3.7605,-3.7676,-3.7701,-3.7715,-3.7801,-3.7793,-3.7786,-3.7764,-3.7822,-3.7851,-3.7863,-3.7717,-3.7717,-3.7716,-3.7716,0,0,-3.7123,-3.7215,-3.7231,-3.7266,-3.7338,-3.7388,-3.7453,-3.7523,-3.7558,-3.7613,-3.767,-3.7759,-3.7753,-3.7794,-3.7814,-3.7856,-3.7922,-3.7845,-3.7847,-3.7859,-3.8021,-3.8026,-3.8039,-3.7926,-3.7928,-3.793,-3.8016,0,-3.7203,-3.7321,-3.7349,-3.745,-3.751,-3.7522,-3.758,-3.763,-3.766,-3.7715,-3.7749,-3.7812,-3.7799,-3.7824,-3.7867,-3.7905,-3.7955,-3.7899,-3.798,-3.7982,-3.7966,-3.8054,-3.8061,-3.8139,-3.8027,-3.8029,-3.8031,0,-3.7313,-3.737,-3.7477,-3.754,-3.7566,-3.7618,-3.7683,-3.7735,-3.7792,-3.7811,-3.7857,-3.7871,-3.7941,-3.7913,-3.801,-3.7971,-3.8005,-3.8028,-3.8032,-3.8042,-3.8011,-3.8069,-3.8165,-3.8177,-3.8049,-3.8047,-3.8046,0,-3.736,-3.7463,-3.754,-3.757,-3.7645,-3.7681,-3.7714,-3.7768,-3.7808,-3.7865,-3.7891,-3.7955,-3.7991,-3.8041,-3.8073,-3.805,-3.8167,-3.8142,-3.8185,-3.8185,-3.8211,-3.821,-3.8316,-3.823,-3.823,-3.823,-3.823,0,-3.7447,-3.7513,-3.7562,-3.761,-3.7683,-3.7713,-3.7785,-3.7819,-3.7867,-3.7922,-3.7936,-3.7987,-3.8025,-3.8081,-3.8106,-3.8183,-3.8198,-3.8216,-3.8223,-3.8216,-3.8214,-3.8241,-3.8237,-3.8233,-3.8232,-3.8232,-3.8231,0,-3.7513,-3.7548,-3.7633,-3.7697,-3.7714,-3.7766,-3.782,-3.7867,-3.7897,-3.7966,-3.7984,-3.8031,-3.8098,-3.8134,-3.8218,-3.8235,-3.8321,-3.8324,-3.8302,-3.8305,-3.8347,-3.8343,-3.8476,-3.8496,-3.8395,-3.8396,-3.8397,0,-3.7567,-3.7618,-3.7686,-3.7724,-3.7757,-3.7817,-3.7858,-3.7889,-3.793,-3.7998,-3.8037,-3.8104,-3.816,-3.8267,-3.8309,-3.8373,-3.8378,-3.842,-3.8388,-3.838,-3.8381,-3.8378,-3.8384,-3.8427,-3.8428,-3.8428,-3.8429,0,-3.7661,-3.7676,-3.7733,-3.7797,-3.7844,-3.7896,-3.7947,-3.7977,-3.8016,-3.8062,-3.813,-3.8173,-3.8258,-3.8326,-3.8393,-3.8427,-3.8435,-3.8438,-3.8452,-3.8447,-3.8433,-3.8443,-3.8319,-3.8436,-3.8435,-3.8434,-3.8434,-3.8434,-3.7724,-3.7769,-3.7825,-3.7888,-3.7929,-3.7976,-3.8024,-3.8059,-3.8116,-3.8188,-3.8202,-3.8275,-3.8329,-3.842,-3.8456,-3.8514,-3.8506,-3.8525,-3.8531,-3.8535,-3.8538,-3.8422,-3.8526,-3.8526,-3.8526,-3.8525,-3.8525,0,-3.782,-3.7855,-3.7913,-3.7984,-3.8033,-3.8035,-3.8091,-3.8133,-3.8196,-3.8246,-3.83,-3.8379,-3.8444,-3.849,-3.8556,-3.8593,-3.8599,-3.861,-3.8608,-3.8616,-3.8541,-3.8523,-3.8604,-3.8604,-3.8604,-3.8604,-3.8604,-3.8604,-3.7876,-3.7953,-3.7974,-3.8071,-3.8107,-3.8177,-3.8209,-3.8253,-3.8293,-3.838,-3.8433,-3.8463,-3.8512,-3.8581,-3.8641,-3.8653,-3.8677,-3.8688,-3.8701,-3.863,-3.8622,-3.8614,-3.8597,-3.8693,-3.8693,-3.8772,-3.8773,-3.8773]}]]